Weather History for Jackson, KY

Change the Weather History Date:

Saturday, May 25, 2013

  Actual Average Record
Temperature  
Mean Temperature 54 °F 67 °F  
Max Temperature 65 °F 76 °F 88 °F (1991)
Min Temperature 42 °F 57 °F 42 °F (2013)
Degree Days  
Heating Degree Days 11 2  
Month to date heating degree days 99 90  
Since 1 July heating degree days 4361 4211  
Cooling Degree Days 0 4  
Month to date cooling degree days 62 67  
Year to date cooling degree days 102 113  
Growing Degree Days 3 (Base 50)    
Moisture  
Dew Point 41 °F    
Average Humidity 66    
Maximum Humidity 89    
Minimum Humidity 43    
Precipitation  
Precipitation 0.00 in 0.17 in 1.00 in (2006)
Month to date precipitation 4.23 4.15  
Year to date precipitation 20.20 19.46  
Snow  
Snow 0.00 in 0.00 in - ()
Month to date snowfall 0.0 0.0  
Since 1 July snowfall 20.0 23.5  
Snow Depth 0.00 in    
Sea Level Pressure  
Sea Level Pressure 30.31 in    
Wind  
Wind Speed 0 mph (North)    
Max Wind Speed 8 mph    
Max Gust Speed 12 mph    
Visibility 10 miles    
Events      
T = Trace of Precipitation, MM = Missing Value Source: NWS Daily Summary

Daily Weather History Graph

Daily Weather History Graph

Search for Another Location

Airport:

Trip Planner

Search our weather history database for the weather conditions in past years. The results will help you decide how hot, cold, wet, or windy it might be!

Date:

Astronomy

May. 25, 2013 Rise Set
Actual Time 6:16 AM EDT 8:44 PM EDT
Civil Twilight 5:46 AM EDT 9:14 PM EDT
Nautical Twilight 5:09 AM EDT 9:51 PM EDT
Astronomical Twilight 4:28 AM EDT 10:33 PM EDT
Moon 9:31 PM EDT (5/25) 6:42 AM EDT (5/25)
Length of Visible Light 15h 27m
Length of Day
14h 27m
Full, 100% of the Moon is Illuminated
May 25
Full
May 31
Last Quarter
Jun 8
New
Jun 16
First Quarter
Jun 23
Full

Hourly Weather History & Observations

Time (EDT) Temp. Windchill Dew Point Humidity Pressure Visibility Wind Dir Wind Speed Gust Speed Precip Events Conditions
12:53 AM 52.0 °F - 37.0 °F 57% 30.30 in 10.0 mi Calm Calm - N/A   Clear
1:53 AM 51.1 °F - 37.0 °F 59% 30.30 in 10.0 mi Calm Calm - N/A   Clear
2:53 AM 43.0 °F 41.3 °F 39.9 °F 89% 30.31 in 9.0 mi Variable 3.5 mph - N/A   Partly Cloudy
3:53 AM 46.0 °F - 37.9 °F 73% 30.30 in 10.0 mi Calm Calm - N/A   Clear
4:53 AM 46.0 °F - 37.9 °F 73% 30.30 in 10.0 mi Calm Calm - N/A   Clear
5:53 AM 44.1 °F - 37.9 °F 79% 30.32 in 10.0 mi Calm Calm - N/A   Clear
6:53 AM 43.0 °F - 39.0 °F 86% 30.35 in 10.0 mi Calm Calm - N/A   Clear
7:53 AM 46.0 °F - 41.0 °F 83% 30.36 in 10.0 mi Calm Calm - N/A   Clear
8:53 AM 48.9 °F - 41.0 °F 74% 30.37 in 10.0 mi Calm Calm - N/A   Clear
9:53 AM 53.1 °F - 42.1 °F 66% 30.38 in 10.0 mi Calm Calm - N/A   Clear
10:53 AM 57.0 °F - 39.9 °F 53% 30.36 in 10.0 mi Variable 3.5 mph - N/A   Clear
11:53 AM 57.9 °F - 39.0 °F 49% 30.36 in 10.0 mi Calm Calm - N/A   Clear
12:53 PM 60.1 °F - 41.0 °F 49% 30.36 in 10.0 mi Calm Calm - N/A   Clear
1:53 PM 61.0 °F - 41.0 °F 48% 30.34 in 10.0 mi Calm Calm - N/A   Mostly Cloudy
2:53 PM 63.0 °F - 39.9 °F 43% 30.33 in 10.0 mi Calm Calm - N/A   Partly Cloudy
3:53 PM 62.1 °F - 43.0 °F 50% 30.31 in 10.0 mi Calm Calm - N/A   Overcast
4:53 PM 63.0 °F - 41.0 °F 45% 30.29 in 10.0 mi Calm Calm - N/A   Mostly Cloudy
5:53 PM 63.0 °F - 42.1 °F 46% 30.29 in 10.0 mi Variable 3.5 mph - N/A   Clear
6:53 PM 63.0 °F - 44.1 °F 50% 30.27 in 10.0 mi Calm Calm - N/A   Scattered Clouds
7:53 PM 60.1 °F - 45.0 °F 57% 30.27 in 10.0 mi Calm Calm - N/A   Overcast
8:53 PM 57.9 °F - 44.1 °F 60% 30.23 in 10.0 mi Calm Calm - N/A   Mostly Cloudy
9:53 PM 57.0 °F - 43.0 °F 59% 30.24 in 10.0 mi Calm Calm - N/A   Overcast
10:53 PM 57.0 °F - 45.0 °F 64% 30.25 in 10.0 mi Calm Calm - N/A   Overcast
11:53 PM 57.0 °F - 44.1 °F 62% 30.27 in 10.0 mi Calm Calm - N/A   Overcast